{"data":{"norad_id":64539,"epoch":"2026-09-20T06:59:44.469024Z","epoch_age_seconds":199711,"freshness":"STALE","line1":"1 64539U 25135M   26263.29148691  .00002815  00000+0  12074-3 0  9994","line2":"2 64539  97.4768  18.4166 0001679 184.9546 175.1674 15.23571526 69357","mean_motion":15.23571526,"eccentricity":0.0001679,"inclination_deg":97.4768,"raan_deg":18.4166,"arg_perigee_deg":184.9546,"mean_anomaly_deg":175.1674,"bstar":0.00012074,"rev_number":6935,"period_min":94.514761888507,"perigee_km":493.92420460313,"apogee_km":496.23223027314,"semimajor_km":6873.2152174381,"source":"CELESTRAK","updated_at":"2026-09-22T09:00:29.840946Z"}}